User: anonymous   Login
Location: Unspecified
(0.0000°N, 0.0000°E)
Time: 19:19:17
(UTC+02:00)
Language:

YAOGAN 1 - Orbit

View from above orbital plane
View from above orbital plane
View from above satellite
View from above satellite

Ground track
Ground track

The orbit data is extracted from the following two-line orbital elements,

1 29092U 06015A   18170.95318132 +.00000080 +00000-0 +16524-4 0  9993
2 29092 097.9897 187.4766 0001469 088.4030 271.7352 14.82914915656766
Epoch (UTC): 19 June 2018 22:52:34
Eccentricity: 0.0001469
inclination: 97.9897°
perigee height: 619 km
apogee height: 621 km
right ascension of ascending node: 187.4766°
argument of perigee: 88.4030°
revolutions per day: 14.82914915
mean anomaly at epoch: 271.7352°
orbit number at epoch: 65676

The dashed part of the orbit path shows where the satellite is in the earth's shadow,  

DLR